813 visiteurs
Prévisions de votre ville :
Vigilance : 5 départements Mise à jour le 18/07/2019 à 16:04 - Voir la carte

Paris Roissy CDG (95380) le 18/07/2019 à 23:00 Choisir station

17.7°C 94 % ONO Rafales 20 km/h
Vit. moyenne 15 kmh/h

Relevés météo quotidiens pour la station de :

UTC
S: Synop
M: Metar
Loc T°C
(°C)
Td
(°C)
HR
(%)
Vis
(km)
Néb
(octa)
Vent
(km/h)
Pression
(mb)
Précipitations
(mm)
Temps
              MOY
10 min
DIR RAF 1h MESURE VAR SUR 3h    
S 00 h 02h 24.6 12.9 48 55 - 15 19 1014.2 +0.4/3h 0.0/6h - 0.0/3h -
S 01 h 03h 23.6 12.9 51 60 - 13 19 1014.0 -0.1/3h 0.0/1h -
S 02 h 04h 22.5 13.0 55 60 - 11 20 1014.2 -0.1/3h 0.0/1h -
S 03 h 05h 21.4 14.5 65 55 - 6 9 1014.2 -0.1/3h 0.0/3h -
S 04 h 06h 20.6 14.9 70 40 - 9 15 1014.3 +0.3/3h 0.0/1h -
S 05 h 07h 21.2 15.7 71 40 - 17 22 1014.7 +0.5/3h 0.0/1h -
S 06 h 08h 23.0 15.8 64 40 - 15 22 1015.3 +1.1/3h 0.0/12h - 0.0/3h - 0.0/24h -
S 07 h 09h 25.8 15.8 54 30 - 9 15 1015.4 +1.2/3h 0.0/1h -
S 08 h 10h 27.2 15.6 49 26 - 7 17 1015.7 +1.1/3h 0.0/1h -
S 09 h 11h 30.0 14.5 39 24 - 22 37 1015.5 +0.3/3h 0.0/3h -
S 10 h 12h 29.6 13.8 38 35 - 19 37 1015.1 -0.3/3h 0.0/1h -
S 11 h 13h 32.3 11.5 28 30 - 22 46 1014.6 -1.1/3h 0.0/1h -
S 12 h 14h 33.7 10.9 25 25 - 17 41 1014.0 -1.5/3h 0.0/6h - 0.0/3h -
S 13 h 15h 34.5 10.4 23 26 - 19 39 1013.5 -1.6/3h 0.0/1h -
S 14 h 16h 34.7 12.4 26 20 - 24 43 1013.1 -1.5/3h 0.0/1h -
S 15 h 17h 34.4 13.8 29 19 - 22 46 1012.6 -1.4/3h 0.0/3h -
S 16 h 18h 34.9 14.2 29 22 - 13 26 1012.5 -1.0/3h 0.0/1h -
S 17 h 19h 34.0 13.5 29 18 - 20 41 1012.5 -0.6/3h 0.0/1h -
S 18 h 20h 32.8 12.4 29 18 - 22 37 1012.9 +0.3/3h 0.0/12h - 0.0/3h -
S 19 h 21h 31.3 12.6 32 25 - 22 37 1013.0 +0.5/3h 0.0/1h -
S 20 h 22h 28.8 13.1 38 60 - 7 15 1013.7 +1.2/3h 0.0/1h -
S 21 h 23h 26.9 13.3 43 60 - 9 11 1014.5 +1.6/3h 0.0/3h -
S 22 h 00h 26.7 13.8 45 60 - 13 28 1015.0 +2.0/3h 0.0/1h -
S 23 h 01h 24.9 14.4 52 60 - 11 22 1015.4 +1.7/3h 0.0/1h -
evolution des temperatures
cumul des precipitations
vent moyen et rafales
pression atmospherique

Un tiret (-) signifie que les données ne sont pas disponibles.

Passez la souris sur les pictos temps pour avoir plus de précisions. Passez les flèches sur l'icône de la direction du vent pour voir la direction précise en degrés.

Les données de l'heure en cours sont disponibles à partir de H+15 minutes.


S signifie station Synop, plus complète qu'une station Metar (M). Il y a +1h de différence entre l'heure UTC et l'heure légale en hiver et +2h en été.

Td est la mesure du point de rosée.

HR est l'humidité relative/p>

Vis est la visibilité

Néb est la nébulosité du ciel (couverture nuageuse) exprimée en octas (de 0/8 à 8/8).

Vent moy 10 min donne le vent moyen sur les 10 minutes qui précèdent le relevé.

Vent raf 1h donne la rafale maximale mesurée dans l'heure qui précède le relevé.


Les données les plus anciennes remontent à avril 2014.

Les données présentées sur cette page proviennent des stations météo officielles. Les relevés sont effectués aux normes en vigueur (anémomètre à 10m de haut, thermomètre sous abri normalisé à 2m du sol...)

Météo 60 décline toute responsabilité en cas d'absence de données, d'erreurs, de mauvaise utilisation ou interprétation et n'est pas habilité à fournir des certificats intempéries.